Ferguson, KY

5:33 PM EDT on August 26, 2016 (GMT -0400)
Somerset-Pulaski County-Wilson

Weather History for KSME - May, 2013

Change the Weather History Date:

Sunday, May 12, 2013

  Actual Average Record
Temperature  
Mean Temperature 50 °F -  
Max Temperature 59 °F 76 °F 89 °F (2000)
Min Temperature 41 °F 52 °F 41 °F (2013)
Degree Days  
Heating Degree Days 15    
Moisture  
Dew Point 34 °F    
Average Humidity 53    
Maximum Humidity 94    
Minimum Humidity 29    
Precipitation  
Precipitation 0.00 in - - ()
Sea Level Pressure  
Sea Level Pressure 30.11 in    
Wind  
Wind Speed 6 mph (NW)    
Max Wind Speed 13 mph    
Max Gust Speed 18 mph    
Visibility 10 miles    
Events      
Averages and records for this station are not official NWS values.
T = Trace of Precipitation, MM = Missing Value Source: NWS Daily Summary

Daily Weather History Graph

Daily Weather History Graph

Search for Another Location

Airport or City:

Trip Planner

Search our weather history database for the weather conditions in past years. The results will help you decide how hot, cold, wet, or windy it might be!

Date:

Astronomy

May. 12, 2013 Rise Set
Actual Time 6:32 AM EDT 8:37 PM EDT
Civil Twilight 6:03 AM EDT 9:06 PM EDT
Nautical Twilight 5:28 AM EDT 9:41 PM EDT
Astronomical Twilight 4:50 AM EDT 10:19 PM EDT
Moon 8:27 AM EDT (5/12) 11:03 PM EDT (5/12)
Length of Visible Light 15h 02m
Length of Day
14h 04m
Waxing Crescent, 6% of the Moon is Illuminated
May 12
Waxing Crescent
May 18
First Quarter
May 25
Full
May 31
Last Quarter
Jun 8
New

Hourly Weather History & Observations

Time (EDT) Temp. Windchill Dew Point Humidity Pressure Visibility Wind Dir Wind Speed Gust Speed Precip Events Conditions
12:15 AM 55.4 °F - 51.8 °F 88% 30.02 in 10.0 mi West 9.2 mph - N/A   Overcast
12:35 AM 53.6 °F - 51.8 °F 94% 30.03 in 10.0 mi WNW 5.8 mph - N/A   Overcast
12:55 AM 53.6 °F - 51.8 °F 94% 30.03 in 10.0 mi WNW 5.8 mph - N/A   Overcast
1:15 AM 53.6 °F - 50.0 °F 88% 30.04 in 10.0 mi WNW 6.9 mph - N/A   Overcast
1:35 AM 53.6 °F - 48.2 °F 82% 30.04 in 10.0 mi NW 9.2 mph - N/A   Overcast
1:55 AM 53.6 °F - 46.4 °F 77% 30.04 in 10.0 mi North 8.1 mph - N/A   Overcast
2:15 AM 51.8 °F - 46.4 °F 82% 30.05 in 10.0 mi North 5.8 mph - N/A   Mostly Cloudy
2:35 AM 51.8 °F - 44.6 °F 76% 30.05 in 10.0 mi NNW 3.5 mph - N/A   Scattered Clouds
2:55 AM 50.0 °F - 41.0 °F 71% 30.05 in 10.0 mi NNW 5.8 mph - N/A   Scattered Clouds
3:15 AM 50.0 °F - 41.0 °F 71% 30.05 in 10.0 mi NW 4.6 mph - N/A   Mostly Cloudy
3:35 AM 48.2 °F - 37.4 °F 66% 30.05 in 10.0 mi NW 5.8 mph - N/A   Mostly Cloudy
3:55 AM 48.2 °F - 35.6 °F 62% 30.06 in 10.0 mi NNW 5.8 mph - N/A   Scattered Clouds
4:15 AM 46.4 °F 44.3 °F 35.6 °F 66% 30.06 in 10.0 mi NNW 4.6 mph - N/A   Clear
4:35 AM 46.4 °F 44.3 °F 33.8 °F 62% 30.07 in 10.0 mi NW 4.6 mph - N/A   Clear
4:55 AM 46.4 °F 45.2 °F 33.8 °F 62% 30.07 in 10.0 mi NW 3.5 mph - N/A   Clear
5:35 AM 44.6 °F - 35.6 °F 71% 30.08 in 10.0 mi Calm Calm - N/A   Clear
5:55 AM 42.8 °F - 35.6 °F 76% 30.08 in 10.0 mi Calm Calm - N/A   Clear
6:15 AM 42.8 °F - 35.6 °F 76% 30.08 in 10.0 mi Calm Calm - N/A   Clear
6:35 AM 41.0 °F 39.0 °F 35.6 °F 81% 30.09 in 10.0 mi East 3.5 mph - N/A   Mostly Cloudy
6:55 AM 41.0 °F - 37.4 °F 87% 30.10 in 10.0 mi Calm Calm - N/A   Scattered Clouds
7:15 AM 42.8 °F - 35.6 °F 76% 30.10 in 10.0 mi Calm Calm - N/A   Clear
7:35 AM 42.8 °F - 35.6 °F 76% 30.11 in 10.0 mi Calm Calm - N/A   Clear
7:55 AM 44.6 °F 43.1 °F 35.6 °F 71% 30.12 in 10.0 mi NW 3.5 mph - N/A   Clear
8:15 AM 44.6 °F 43.1 °F 35.6 °F 71% 30.12 in 10.0 mi NNW 3.5 mph - N/A   Clear
8:35 AM 46.4 °F 43.5 °F 35.6 °F 66% 30.12 in 10.0 mi NW 5.8 mph - N/A   Clear
8:55 AM 48.2 °F - 35.6 °F 62% 30.12 in 10.0 mi NNW 4.6 mph - N/A   Clear
9:15 AM 50.0 °F - 35.6 °F 58% 30.13 in 10.0 mi NNW 3.5 mph - N/A   Clear
9:35 AM 50.0 °F - 35.6 °F 58% 30.13 in 10.0 mi NW 5.8 mph - N/A   Clear
9:55 AM 51.8 °F - 32.0 °F 47% 30.13 in 10.0 mi WNW 5.8 mph - N/A   Scattered Clouds
10:15 AM 51.8 °F - 30.2 °F 44% 30.13 in 10.0 mi NNW 5.8 mph - N/A   Clear
10:35 AM 51.8 °F - 28.4 °F 41% 30.13 in 10.0 mi WNW 12.7 mph - N/A   Clear
10:55 AM 51.8 °F - 28.4 °F 41% 30.13 in 10.0 mi West 11.5 mph - N/A   Clear
11:15 AM 53.6 °F - 28.4 °F 38% 30.14 in 10.0 mi NNW 8.1 mph - N/A   Clear
11:35 AM 53.6 °F - 28.4 °F 38% 30.14 in 10.0 mi West 9.2 mph 17.3 mph N/A   Clear
11:55 AM 53.6 °F - 30.2 °F 41% 30.14 in 10.0 mi West 10.4 mph - N/A   Clear
12:15 PM 55.4 °F - 28.4 °F 36% 30.14 in 10.0 mi NNW 10.4 mph 16.1 mph N/A   Clear
12:35 PM 55.4 °F - 28.4 °F 36% 30.14 in 10.0 mi NW 11.5 mph - N/A   Clear
12:55 PM 55.4 °F - 30.2 °F 38% 30.14 in 10.0 mi NNW 6.9 mph - N/A   Clear
1:15 PM 55.4 °F - 30.2 °F 38% 30.14 in 10.0 mi West 11.5 mph 17.3 mph N/A   Scattered Clouds
1:35 PM 57.2 °F - 32.0 °F 38% 30.14 in 10.0 mi West 12.7 mph 16.1 mph N/A   Scattered Clouds
1:55 PM 55.4 °F - 26.6 °F 33% 30.14 in 10.0 mi NW 11.5 mph 18.4 mph N/A   Clear
2:15 PM 57.2 °F - 30.2 °F 36% 30.14 in 10.0 mi NNW 10.4 mph - N/A   Clear
2:35 PM 57.2 °F - 28.4 °F 33% 30.13 in 10.0 mi NNW 3.5 mph 18.4 mph N/A   Clear
3:15 PM 59.0 °F - 30.2 °F 34% 30.13 in 10.0 mi WNW 5.8 mph 9.2 mph N/A   Scattered Clouds
3:35 PM 59.0 °F - 28.4 °F 31% 30.13 in 10.0 mi WNW 10.4 mph - N/A   Scattered Clouds
3:55 PM 59.0 °F - 30.2 °F 34% 30.13 in 10.0 mi West 11.5 mph 18.4 mph N/A   Clear
4:15 PM 59.0 °F - 30.2 °F 34% 30.11 in 10.0 mi WNW 9.2 mph 18.4 mph N/A   Scattered Clouds
4:35 PM 59.0 °F - 30.2 °F 34% 30.11 in 10.0 mi West 9.2 mph 17.3 mph N/A   Scattered Clouds
4:55 PM 59.0 °F - 30.2 °F 34% 30.11 in 10.0 mi West 12.7 mph - N/A   Clear
5:15 PM 59.0 °F - 28.4 °F 31% 30.11 in 10.0 mi West 8.1 mph - N/A   Clear
5:35 PM 59.0 °F - 30.2 °F 34% 30.12 in 10.0 mi WNW 10.4 mph 16.1 mph N/A   Clear
5:55 PM 59.0 °F - 28.4 °F 31% 30.12 in 10.0 mi WNW 11.5 mph 18.4 mph N/A   Clear
6:15 PM 59.0 °F - 30.2 °F 34% 30.11 in 10.0 mi WNW 10.4 mph - N/A   Clear
6:35 PM 59.0 °F - 26.6 °F 29% 30.11 in 10.0 mi NW 5.8 mph - N/A   Clear
6:55 PM 57.2 °F - 26.6 °F 31% 30.12 in 10.0 mi WNW 10.4 mph 17.3 mph N/A   Clear
7:15 PM 57.2 °F - 28.4 °F 33% 30.12 in 10.0 mi West 10.4 mph - N/A   Clear
7:35 PM 55.4 °F - 28.4 °F 36% 30.12 in 10.0 mi WNW 8.1 mph - N/A   Clear
7:55 PM 55.4 °F - 26.6 °F 33% 30.12 in 10.0 mi NW 6.9 mph - N/A   Clear
8:15 PM 53.6 °F - 28.4 °F 38% 30.13 in 10.0 mi West 8.1 mph - N/A   Clear
8:35 PM 53.6 °F - 28.4 °F 38% 30.13 in 10.0 mi WNW 5.8 mph - N/A   Clear
8:55 PM 51.8 °F - 26.6 °F 38% 30.13 in 10.0 mi WNW 4.6 mph - N/A   Clear
9:15 PM 51.8 °F - 28.4 °F 41% 30.14 in 10.0 mi WNW 4.6 mph - N/A   Clear
9:35 PM 50.0 °F - 28.4 °F 43% 30.15 in 10.0 mi WNW 3.5 mph - N/A   Clear
9:55 PM 50.0 °F - 30.2 °F 47% 30.16 in 10.0 mi WNW 3.5 mph - N/A   Clear
10:15 PM 50.0 °F - 30.2 °F 47% 30.17 in 10.0 mi Calm Calm - N/A   Clear
10:35 PM 48.2 °F - 32.0 °F 54% 30.17 in 10.0 mi Calm Calm - N/A   Clear
10:55 PM 48.2 °F - 32.0 °F 54% 30.17 in 10.0 mi NW 3.5 mph - N/A   Clear
11:15 PM 46.4 °F - 32.0 °F 57% 30.17 in 10.0 mi Calm Calm - N/A   Clear
11:35 PM 44.6 °F 43.1 °F 32.0 °F 61% 30.17 in 10.0 mi WNW 3.5 mph - N/A   Clear
11:55 PM 44.6 °F 43.1 °F 32.0 °F 61% 30.17 in 10.0 mi NW 3.5 mph - N/A   Clear